SL-8 R/B

Satellite information

Favourite Embed

Satellite Type and Status

ROCKET BODYIN ORBIT

Key statistics

Satellite SL-8 R/B at a glance.

Uptime

8601

Days in orbit

Revolutions

≈ 13.8

Per day

Orbit

LEO

Low Earth Orbit

Inclination

82.9

Latest

Satellite identification and parameters

Extended collection of information and parameters for SL-8 R/B.

Object identification

Identified? True

Debris? False

Object name: SL-8 R/B

International designator: 2002-026B

Object number (NORAD): 27437

Object ID (CCSDS): 27437

Country: COMMONWEALTH OF INDEPENDENT STATES (CIS)

Current information (Y/N): Y

RCS size: LARGE

Orbital parameters

Period: 104.581 minutes

Inclination: 82.9499 deg

SMA: 7352.948 km

Apoapsis: 1006.878 km

Periapsis: 942.748 km

RAAN: 288.7655 deg

Eccentricy: 0.00436088

Argument of periapsis: 350.4688 deg

Mean anomaly: 9.5636 deg

Mean motion: 13.76925724 rev/day

Mean motion (dot): 0.00000111 rev/day2

B* drag term: 0.000096298148 1/REarth

Two-line elements (TLE)

Creation date: Dec. 12, 2025, 10:14 a.m.

Reference frame: TEME

Reference center: EARTH

Epoch: Dec. 12, 2025, 6:44 a.m. UTC

TLE line 0: 0 SL-8 R/B

TLE line 1: 1 27437U 02026B 25346.28055679 .00000111 00000-0 96298-4 0 9996

TLE line 2: 2 27437 82.9499 288.7655 0043609 350.4688 9.5636 13.76925724182852

Live tracking on map

Real-time ground track for satellite SL-8 R/B.

In-orbit conjunctions

A list of the most updated potential collisions computed for object SL-8 R/B.

Target Orbit TCA Probability of collision Miss distance Type
FENGYUN 1C DEB SSO 2024-09-22 07:43:36 0.001043758 80.0 (m) DEBRIS
DELTA 1 DEB SSO 2024-06-30 06:37:47 0.0004663971 62.0 (m) DEBRIS

Associated space launch

Navigation satellite providing location information for the Tsiklon-B navigation system

SL-8 R/B was lifted into orbit during the mission ‘Kosmos-3M | Parus 93’, on board a Kosmos-3M space rocket.

The launch took place on May 28, 2002, 6:14 p.m. from 132/1 (132L).

For more information about the launch, click the button.

Launch to space Kosmos-3M | Parus 93
Kosmos-3M | Parus 93

Agency: N/A

Status: Launch Successful

Launch date: May 28, 2002, 6:14 p.m. UTC

Rocket: Kosmos-3M

Launch pad: 132/1 (132L)

Location: Plesetsk Cosmodrome, Russian Federation

...

Latest news about this satellite

There are no fresh news available about this satellite. Check back as we update our databases every day.


Newsletter sign-up

Weekly statistics, charts and insights to help you stay on top of the space industry.